Stations météo

réclame
Mon MeteoGroup
Aubenas, France (7570): Température de l'air & dewpoint: 11.12.2018 07:00:00 - 17.12.2018 07:00:00 (CET)Aubenas, France (7570): Température de l'air 5cm: 11.12.2018 07:00:00 - 17.12.2018 07:00:00 (CET)Aubenas, France (7570): Température de l'air -20cm & Température de l'air -100cm: 11.12.2018 07:00:00 - 17.12.2018 07:00:00 (CET)Aubenas, France (7570): Vitesse du vent & gusts: 11.12.2018 07:00:00 - 17.12.2018 07:00:00 (CET)Aubenas, France (7570): Direction du vent: 11.12.2018 07:00:00 - 17.12.2018 07:00:00 (CET)Aubenas, France (7570): reduced air pressure: 11.12.2018 07:00:00 - 17.12.2018 07:00:00 (CET)Aubenas, France (7570): visibility: 11.12.2018 07:00:00 - 17.12.2018 07:00:00 (CET)Aubenas, France (7570): Quantités de précipitations: 11.12.2018 07:00:00 - 17.12.2018 07:00:00 (CET)
Date & Time tt [°C] td [°C] tt 5cm [°C] tt -20cm [°C] tt -100cm [°C] ff [km/h] ff [knt] fx [km/h] fx [knt] dd ppp [hPa] vv [km] rr [mm]
17.12.2018 07:00:00 6,5 1,0 2,4 7,9 11,7 5 3 34 19 NNE 1023,1 20 0,0
17.12.2018 06:00:00 8,0 2,2 6,1 7,8 11,7 16 8 34 18 NNW 1021,7 20 0,0
17.12.2018 05:00:00 7,6 6,1 3,6 7,8 11,7 16 9 31 17 NNW 1020,5 20 0,0
17.12.2018 04:00:00 3,7 3,3 3,6 7,8 11,7 2 1 11 6 ESE 1020,5 0,1 0,0
17.12.2018 03:00:00 3,8 3,4 3,5 7,8 11,7 4 2 10 5 S 1019,7 0,1 0,0
17.12.2018 02:00:00 4,5 4,1 4,1 7,8 11,8 3 2 5 3 WSW 1018,9 0,3 0,0
17.12.2018 01:00:00 4,9 4,5 3,8 7,8 11,7 5 3 13 7 E 1018,2 1,8 0,0
17.12.2018 00:00:00 3,9 3,5 3,7 7,8 11,7 8 4 11 6 ESE 1018,3 0,2 0,0
16.12.2018 23:00:00 4,0 3,6 3,8 7,8 11,8 8 5 13 7 - 1017,9 1,1 0,0
16.12.2018 22:00:00 3,8 3,2 3,5 7,8 11,8 5 3 9 5 WSW 1017,1 2,2 0,0
16.12.2018 21:00:00 4,1 3,5 4,1 7,8 11,8 5 3 7 4 WSW 1016,7 0,5 1,0
16.12.2018 20:00:00 4,2 3,6 4,0 7,8 11,8 4 2 9 5 E 1016,7 1,5 1,4
16.12.2018 19:00:00 4,0 3,4 3,9 7,8 11,8 4 2 7 4 NNW 1016,2 1,3 0,0
16.12.2018 18:00:00 4,0 3,4 3,8 7,8 11,8 0 0 9 5 N 1016,2 3,2 0,0
16.12.2018 17:00:00 4,0 3,4 3,9 7,8 11,8 3 2 6 3 - 1015,9 2,6 0,0
16.12.2018 16:00:00 4,0 3,4 4,1 7,8 11,8 5 3 8 5 - 1016,1 4,5 0,0
16.12.2018 15:00:00 3,8 3,2 4,0 7,8 11,8 3 2 5 3 S 1016,4 3,6 0,4
16.12.2018 14:00:00 3,7 3,1 3,9 7,8 11,8 2 1 5 3 - 1017,5 3,4 1,0
16.12.2018 13:00:00 3,4 2,8 3,7 7,8 11,8 0 0 5 3 - 1018,0 5 0,0
16.12.2018 12:00:00 2,9 2,3 3,0 7,8 11,9 3 1 11 6 - 1019,5 3,5 0,0
16.12.2018 11:00:00 2,8 2,2 2,7 7,8 11,9 3 1 8 4 - 1019,7 4,0 0,0
16.12.2018 10:00:00 2,5 1,9 2,3 7,8 11,9 4 2 8 5 - 1019,7 3,5 0,0
16.12.2018 09:00:00 2,2 1,6 2,2 7,8 11,9 4 2 9 5 - 1019,6 1,9 0,0
16.12.2018 08:00:00 2,1 1,5 2,0 7,8 11,9 3 1 8 4 NNW 1019,6 2,1 0,0
16.12.2018 07:00:00 2,1 1,5 1,9 7,8 11,9 0 0 8 5 N 1019,2 2,0 0,0
16.12.2018 06:00:00 2,1 1,4 1,8 7,8 11,9 0 0 14 8 - 1019,7 8 0,0
16.12.2018 05:00:00 2,0 1,4 1,6 7,8 11,9 5 3 8 4 - 1020,6 2,7 0,0
16.12.2018 04:00:00 1,9 1,2 1,6 7,8 11,9 2 1 4 2 - 1020,7 1,8 0,0
16.12.2018 03:00:00 2,0 1,1 1,9 7,8 11,9 0 0 2 1 - 1021,2 2,6 0,8
16.12.2018 02:00:00 2,0 1,0 1,6 7,8 11,9 0 0 9 5 - 1021,2 3,1 0,8
16.12.2018 01:00:00 1,6 0,7 1,4 7,9 11,9 4 2 10 5 NNE 1021,3 6 0,0
16.12.2018 00:00:00 1,6 0,7 1,4 7,9 11,9 4 2 6 3 N 1021,8 2,8 0,4
15.12.2018 23:00:00 1,6 0,6 1,5 7,9 12,0 0 0 5 3 - 1022,2 2,4 0,2
15.12.2018 22:00:00 1,6 0,6 1,5 7,9 11,9 0 0 4 2 - 1022,3 4,8 0,8
15.12.2018 21:00:00 1,6 0,4 1,5 7,9 12,0 2 1 5 3 - 1022,2 4,2 0,2
15.12.2018 20:00:00 1,7 -0,1 1,4 7,9 12,0 3 1 4 2 - 1022,1 8 0,2
15.12.2018 19:00:00 1,7 -0,7 1,3 8,0 12,0 0 0 4 2 - 1021,9 9 0,2
15.12.2018 18:00:00 1,9 -0,5 1,5 8,0 12,0 3 2 4 2 - 1022,2 8 0,2
15.12.2018 17:00:00 2,1 -1,0 1,4 8,0 12,0 3 2 6 3 - 1022,4 10 0,4
15.12.2018 16:00:00 3,2 -3,2 3,4 8,0 12,0 3 2 8 4 - 1022,3 19 0,0
15.12.2018 15:00:00 3,5 -3,3 3,8 8,1 12,0 6 3 11 6 - 1022,3 20 0,0
15.12.2018 14:00:00 4,4 -4,1 5,0 8,2 12,0 5 3 9 5 - 1022,1 20 0,0
15.12.2018 13:00:00 5,0 -5,1 8,7 8,2 12,0 6 3 14 8 - 1021,9 20 0,0
15.12.2018 12:00:00 4,3 -5,5 7,2 8,3 12,0 6 3 11 6 - 1022,8 20 0,0
15.12.2018 11:00:00 2,9 -4,6 5,5 8,2 12,0 3 2 14 8 - 1023,8 20 0,0
15.12.2018 10:00:00 0,7 -5,5 -0,5 8,3 12,0 4 2 11 6 - 1023,6 20 0,0
15.12.2018 09:00:00 -2,6 -5,7 -6,8 8,3 12,0 0 0 8 5 - 1024,2 20 0,0
15.12.2018 08:00:00 -4,2 -6,7 -7,9 8,4 12,0 4 2 7 4 - 1024,1 18 0,0
15.12.2018 07:00:00 -4,3 -6,6 -7,4 8,4 12,0 0 0 7 4 N 1023,9 16 0,0
15.12.2018 06:00:00 -3,9 -6,4 -7,6 8,5 12,0 0 0 4 2 - 1023,2 20 0,0
15.12.2018 05:00:00 -3,0 -6,3 -7,3 8,5 12,0 2 1 6 3 - 1023,2 20 0,0
15.12.2018 04:00:00 -3,4 -6,4 -6,7 8,5 12,0 0 0 8 5 - 1023,4 17 0,0
15.12.2018 03:00:00 -1,9 -5,9 -4,6 8,6 12,1 4 2 12 6 - 1023,3 20 0,0
15.12.2018 02:00:00 -1,6 -5,3 -4,9 8,6 12,1 6 3 23 12 - 1022,7 19 0,0
15.12.2018 01:00:00 -1,8 -5,1 -5,2 8,6 12,1 5 3 15 8 NNW 1022,6 19 0,0
15.12.2018 00:00:00 -1,0 -5,2 -2,7 8,6 12,1 10 6 19 10 NNW 1022,5 20 0,0
14.12.2018 23:00:00 -0,2 -4,5 -1,4 8,6 12,1 13 7 27 15 - 1021,9 19 0,0
14.12.2018 22:00:00 0,3 -3,8 -0,9 8,6 12,1 11 6 26 14 - 1021,9 17 0,0
14.12.2018 21:00:00 1,0 -3,1 -0,6 8,6 12,1 19 10 33 18 - 1021,3 15 0,0
14.12.2018 20:00:00 1,5 -2,3 0,0 8,5 12,1 20 11 30 16 - 1021,1 13 0,0
14.12.2018 19:00:00 1,7 -1,7 0,2 8,6 12,1 21 11 31 17 - 1020,3 12 0,0
14.12.2018 18:00:00 2,2 -1,2 0,5 8,6 12,1 14 8 21 11 - 1019,6 12 0,0
14.12.2018 17:00:00 3,9 -0,9 2,4 8,5 12,1 8 4 22 12 - 1018,6 19 0,0
14.12.2018 16:00:00 6,9 0,1 8,9 8,6 12,1 13 7 28 15 - 1017,5 20 0,0
14.12.2018 15:00:00 8,2 0,7 11,6 8,6 12,2 14 8 23 12 - 1016,5 20 0,0
14.12.2018 14:00:00 8,0 2,0 9,6 8,5 12,1 10 5 18 10 - 1016,5 20 0,0
14.12.2018 13:00:00 8,0 2,0 12,1 8,6 12,2 12 7 21 11 - 1016,5 20 0,0
14.12.2018 12:00:00 6,0 4,0 6,6 8,6 12,2 7 4 - - ENE 1017,1 19 0,0
14.12.2018 11:00:00 3,8 3,2 4,4 8,6 12,2 3 2 9 5 SW 1017,6 6 0,0
14.12.2018 10:00:00 2,8 2,4 2,8 8,6 12,2 4 2 9 5 WSW 1016,8 4,9 0,0
14.12.2018 09:00:00 2,3 1,9 1,4 8,6 12,2 2 1 5 3 WSW 1015,8 3,6 0,0
14.12.2018 08:00:00 2,1 1,7 -0,2 8,6 12,2 3 2 7 4 N 1015,1 4,9 0,0
14.12.2018 07:00:00 2,5 2,1 2,4 8,6 12,2 3 2 8 5 SW 1014,8 3,9 0,0
14.12.2018 06:00:00 2,7 2,3 2,7 8,6 12,2 3 2 10 5 WSW 1014,6 3,7 0,0
14.12.2018 05:00:00 2,6 2,2 2,7 8,6 12,2 5 3 9 5 WSW 1014,4 2,3 0,0
14.12.2018 04:00:00 2,6 2,0 2,7 8,6 12,2 7 4 9 5 WSW 1014,4 1,9 0,0
14.12.2018 03:00:00 2,8 2,2 2,9 8,6 12,3 4 2 6 3 SW 1014,1 1,9 0,0
14.12.2018 02:00:00 3,0 2,4 3,0 8,6 12,2 0 0 0 0 N 1013,9 1,4 0,0
14.12.2018 01:00:00 3,1 2,5 3,0 8,6 12,2 0 0 3 2 N 1013,6 1,7 0,0
14.12.2018 00:00:00 3,1 2,5 3,0 8,6 12,3 0 0 3 2 N 1013,5 2,4 0,4
13.12.2018 23:00:00 3,3 2,7 3,1 8,6 12,3 0 0 3 2 N 1013,0 3,3 0,4
13.12.2018 22:00:00 3,4 2,8 3,3 8,6 12,3 0 0 6 3 N 1012,4 3,1 0,0
13.12.2018 21:00:00 3,4 2,8 3,3 8,6 12,3 3 2 5 3 ESE 1011,7 4,1 0,0
13.12.2018 20:00:00 3,4 2,8 3,2 8,6 12,2 0 0 3 2 N 1011,1 4,1 0,2
13.12.2018 19:00:00 3,1 2,5 3,0 8,7 12,3 0 0 4 2 N 1010,8 1,3 0,2
13.12.2018 18:00:00 2,9 2,3 2,9 8,7 12,3 3 1 4 2 W 1010,8 0,5 0,0
13.12.2018 17:00:00 3,2 2,6 3,0 8,7 12,3 0 0 6 3 N 1010,6 1,7 0,0
13.12.2018 16:00:00 2,7 2,0 2,9 8,7 12,3 4 2 8 4 ESE 1010,6 1,6 0,6
13.12.2018 15:00:00 2,6 1,7 2,5 8,8 12,3 4 2 8 4 SE 1010,6 2,4 0,8
13.12.2018 14:00:00 2,2 0,9 2,1 8,8 12,3 3 2 8 5 WSW 1011,0 7 0,0
13.12.2018 13:00:00 2,2 0,1 2,1 8,8 12,3 3 1 10 5 W 1011,4 3,9 0,2
13.12.2018 12:00:00 2,2 -0,9 2,6 8,8 12,3 7 4 10 5 - 1012,0 12 0,0
13.12.2018 11:00:00 2,1 -0,8 2,0 8,8 12,3 3 2 5 3 SW 1012,9 14 0,0
13.12.2018 10:00:00 1,4 -1,3 0,9 8,9 12,3 0 0 6 3 N 1013,2 18 0,0
13.12.2018 09:00:00 0,6 -1,3 -0,3 8,9 12,3 2 1 8 4 - 1013,4 19 0,0
13.12.2018 08:00:00 -0,1 -1,5 -1,6 9,0 12,3 3 2 9 5 NNW 1013,7 20 0,0
13.12.2018 07:00:00 -0,8 -2,4 -2,8 9,0 12,3 6 3 11 6 S 1014,2 20 0,0
13.12.2018 06:00:00 -0,6 -1,9 -2,0 9,0 12,3 0 0 8 4 N 1014,7 20 0,0
13.12.2018 05:00:00 -1,1 -2,2 -4,0 9,0 12,4 5 3 12 6 NNW 1015,0 17 0,0
13.12.2018 04:00:00 -1,7 -3,0 -4,4 9,0 12,3 6 3 14 8 S 1015,4 18 0,0
13.12.2018 03:00:00 -0,8 -1,9 -4,3 9,1 12,4 11 6 16 9 E 1016,3 17 0,0
13.12.2018 02:00:00 -0,6 -2,7 -3,7 9,1 12,4 5 3 10 5 WNW 1017,0 20 0,0
13.12.2018 01:00:00 0,3 -2,3 -1,9 9,1 12,4 7 4 14 7 - 1017,1 20 0,0
13.12.2018 00:00:00 2,2 -1,6 0,2 9,1 12,4 3 2 7 4 - 1017,1 20 0,0
12.12.2018 23:00:00 2,6 -1,8 1,3 9,1 12,4 5 3 8 4 - 1017,9 20 0,0
12.12.2018 22:00:00 2,0 -1,8 -0,5 9,1 12,4 2 1 11 6 - 1018,5 20 0,0
12.12.2018 21:00:00 2,2 -2,3 -0,6 9,1 12,4 0 0 8 4 - 1018,6 20 0,0
12.12.2018 20:00:00 3,3 -1,5 0,9 9,1 12,4 5 3 8 4 - 1018,4 20 0,0
12.12.2018 19:00:00 2,9 -2,4 -0,7 9,1 12,4 0 0 6 3 - 1018,8 20 0,0
12.12.2018 18:00:00 3,9 -2,7 1,9 9,1 12,4 6 3 12 6 - 1018,4 20 0,0
12.12.2018 17:00:00 5,6 -2,7 4,7 9,1 12,4 7 4 15 8 - 1018,7 20 0,0
12.12.2018 16:00:00 7,2 -3,1 7,2 9,1 12,4 9 5 15 8 - 1018,7 20 0,0
12.12.2018 15:00:00 8,4 -3,2 9,6 9,2 12,4 6 3 16 9 - 1018,3 20 0,0
12.12.2018 14:00:00 8,8 -4,1 10,3 9,2 12,4 7 4 16 9 - 1018,9 20 0,0
12.12.2018 13:00:00 7,8 -4,7 9,5 9,2 12,4 5 3 13 7 - 1019,6 20 0,0
12.12.2018 12:00:00 7,9 -3,6 9,9 9,3 12,4 3 1 15 8 - 1020,6 20 0,0
12.12.2018 11:00:00 6,2 -4,0 5,0 9,3 12,4 11 6 18 10 - 1021,2 20 0,0
12.12.2018 10:00:00 3,6 -3,7 1,7 9,4 12,4 7 4 11 6 - 1021,8 20 0,0
12.12.2018 09:00:00 1,4 -3,7 -0,6 9,4 12,4 4 2 13 7 - 1022,4 20 0,0
12.12.2018 08:00:00 0,5 -3,8 -3,7 9,4 12,4 10 5 16 8 NNW 1022,2 20 0,0
12.12.2018 07:00:00 0,4 -4,3 -2,4 9,5 12,5 6 4 11 6 - 1021,8 20 0,0
12.12.2018 06:00:00 -0,2 -4,3 -2,6 9,5 12,4 3 1 13 7 - 1022,2 20 0,0
12.12.2018 05:00:00 1,6 -4,3 -0,5 9,5 12,4 8 5 15 8 - 1022,3 20 0,0
12.12.2018 04:00:00 1,1 -4,0 -2,0 9,6 12,5 10 5 16 8 - 1023,0 20 0,0
12.12.2018 03:00:00 2,1 -3,6 -2,1 9,6 12,5 8 4 15 8 - 1023,0 20 0,0
12.12.2018 02:00:00 1,7 -3,4 -1,8 9,6 12,5 7 4 14 7 - 1023,0 20 0,0
12.12.2018 01:00:00 2,7 -3,0 -0,2 9,6 12,5 8 5 20 11 - 1023,2 20 0,0
12.12.2018 00:00:00 2,8 -2,3 0,0 9,6 12,5 11 6 21 11 - 1023,4 20 0,0
11.12.2018 23:00:00 2,3 -2,4 -0,2 9,7 12,5 8 4 18 10 - 1023,5 20 0,0
11.12.2018 22:00:00 4,1 -2,3 1,3 9,7 12,5 12 7 23 13 - 1023,1 20 0,0
11.12.2018 21:00:00 3,8 -1,8 1,1 9,7 12,5 10 5 17 9 - 1023,2 20 0,0
11.12.2018 20:00:00 4,0 -1,6 1,8 9,7 12,5 12 6 20 11 - 1023,3 20 0,0
11.12.2018 19:00:00 4,3 -1,9 1,6 9,7 12,5 8 5 16 9 - 1023,2 20 0,0
11.12.2018 18:00:00 5,4 -2,2 3,3 9,7 12,5 8 5 32 18 - 1022,8 20 0,0
11.12.2018 17:00:00 7,1 -1,8 5,9 9,7 12,5 19 10 32 17 - 1022,3 20 0,0
11.12.2018 16:00:00 9,4 -1,4 11,0 9,7 12,5 16 9 36 20 - 1022,1 20 0,0
11.12.2018 15:00:00 9,9 -1,5 12,1 9,7 12,5 22 12 36 20 - 1022,2 20 0,0
11.12.2018 14:00:00 10,7 -1,4 13,7 9,7 12,5 18 10 31 17 - 1022,7 20 0,0
11.12.2018 13:00:00 10,5 -1,3 13,8 9,8 12,5 16 9 31 17 - 1023,3 20 0,0
11.12.2018 12:00:00 9,8 -1,0 11,6 9,8 12,5 19 10 42 23 - 1024,0 20 0,0
11.12.2018 11:00:00 9,1 -1,1 11,2 9,8 12,5 24 13 39 21 - 1024,5 20 0,0
11.12.2018 10:00:00 8,6 -1,3 8,6 9,8 12,5 21 11 42 23 - 1024,5 20 0,0
11.12.2018 09:00:00 7,5 -1,0 5,6 9,9 12,5 28 15 50 27 - 1024,3 20 0,0
11.12.2018 08:00:00 6,7 -1,0 5,2 9,9 12,5 24 13 46 25 - 1024,6 20 0,0
11.12.2018 07:00:00 6,4 -1,0 4,5 9,9 12,5 20 11 40 22 - 1025,0 20 0,0

tt = Température de l'air
td = dewpoint
tt 5cm = Température de l'air 5cm
tt -20cm = Température de l'air -20cm
tt -100cm = Température de l'air -100cm
ff = Vitesse du vent
fx = gusts
dd = Direction du vent
ppp = reduced air pressure
vv = visibility
rr = Quantités de précipitations

stations d'obs. à proximité